Showing default

TIANQI 31, 61197

Orbit data source: Space-Track

TIANQI 31, 61197 is a payload satellite owned by Guodian Gaokeji (CN) in LEO that was launched on Fri, 20 Sep 2024 UTC via a KUAIZHOU-1A launch vehicle from the Xichang Space Center, China (XSC). Payload-class satellites include a variety of spacecraft equipped with specific instruments for various scientific and technological missions. These include communications satellites like Starlink; space stations such as the ISS; scientific satellites like the Hubble; Earth observation satellites from companies like Planet Labs, Umbra, and HawkEye 360; GPS; miniature CubeSats for education and research; and military/defense satellites.

Loading next visibility...
Identifier
61197, 2024-170C
Orbit
LEO
Country
Flag of CNCN / PRC
Related business
Manufacturer
Shanghai ASES
Mission
Operational Commercial Communications
Bus & Motor
STARLIGHTB, Unknown motor
Mass
40 kg wet, ~40 kg dry
Launch date (UTC)
2024-09-20 (2 years ago)
Launch vehicle
KUAIZHOU-1A
Launch site
Xichang Space Center, China (XSC)
Object type
Payload
Rocket body
Debris
Shape & HBR
Box, 0.3 m
Radar Cross Section
0.195 m², Medium (>0.1 m² and < 1m²)

Expand to show TLE details & history
Last TLE update: 12 hours ago

TLE from 12 hours ago
0 TIANQI 31
1 61197U 24170C   26171.36944003 -.00000045  00000-0  56882-4 0  9997
2 61197  44.8609 123.1669 0006498  85.4086 274.7487 13.99168124 89395
Epoch: 2026-06-20T08:51Z
TLE epoch observation values (Epoch: 2026-06-20T08:51:59.618Z)
Latitude
-0.00002°
Longitude
81.58343°
Altitude
896.273 km
Speed
7.406 km/s
True Right ascension
08h 12m 40s
True Declination
0° 00' 00"
Sunlit
Object was in daylight at epoch
Visualization orbit readout
Latitude
Unknown
Longitude
Unknown
Altitude
Unknown
Speed
Unknown
Apparent Right ascension
Unknown
Apparent Declination
Unknown
Sunlit
N/A
Visualization observer readout
Local Sidereal Time
07:23:53
Azimuth
Unknown
Elevation
Unknown
Doppler factor
Unknown
Orbital elements
Apogee altitude
902.946 km
Perigee altitude
893.489 km
Semi-major axis
7,276.354 km
Eccentricity
0.00065
Inclination
44.8609°
RAAN
123.1669°
Arg. of periapsis
85.4086°
True anomaly
274.67449°
Mean anomaly
274.7487°
Eccentric anomaly
274.7116°
Mean motion
3.49681 °/min
Orbital period
102.95 mins
BSTAR
0.000056882
Loading maneuver chart data...
Computing Atmospheric mass density...
Loading historical data...
Loading historical data...
Loading historical data...
Loading historical data...
Loading historical data...
Loading historical data...
Loading historical data...
Other satellites on launch #170 in the year 2024 (2024-09-20 UTC)

Documentation

Showing up to 5 results
|